Flag for Chile Weather past 2 weeks in Valparaíso, Chile

Now
55 °F

Mostly cloudy.


Feels Like: 54 °F
Forecast: N/A
Wind: 6 mph from Southeast

Location: Pudahuel

Current Time: Aug 1, 2015 at 5:37:05 PM

Latest Report: Aug 1, 2015 at 5:00 PM


Visibility: N/A

Pressure: 30.04 "Hg

Humidity: 72%

Dew point: 46 °F

Location of ValparaísoLocation

Historic Weather in Valparaíso — Graph

°F

Valparaíso temperature yesterday

Maximum temperature yesterday: 57 °F (at 5:00 PM)
Minimum temperature yesterday: 39 °F (at 6:00 AM)
Average temperature yesterday: 48 °F

Past Weeks' High & Low Weather Summary

 TemperatureHumidityPressure
High73 °F (Jul 29, 5:00 PM)100% (Jul 18, 7:00 AM)30.33 "Hg (Jul 18, 7:00 AM)
Low28 °F (Jul 21, 8:00 AM)22% (Jul 24, 4:00 PM)29.86 "Hg (Jul 26, 3:00 PM)
Average49 °F73%30.08 "Hg
* Reported Jul 17 4:00 PM — Aug 1 4:00 PM, Valparaíso, Weather by CustomWeather, © 2015

Note: Actual official high and low records may vary slightly from our data, if they occured in-between our weather recording intervals... More about our weather records

Advertising

Valparaíso weather history for previous 24 hours

 ConditionsComfort  
Time TempWeatherWind HumidityBarometerVisibility
4:00 PM
Sat, Aug 1
55 °FPartly sunny.6 mph72%30.04 "Hg4 mi
3:00 PM55 °FPartly sunny.7 mph72%30.04 "Hg4 mi
2:00 PM54 °FPartly sunny.2 mph82%30.04 "Hg4 mi
1:00 PM52 °FMostly cloudy.6 mph82%30.07 "Hg4 mi
12:00 PM50 °FMostly cloudy.5 mph88%30.09 "Hg2 mi
11:00 AM48 °FFog.1 mph94%30.09 "Hg2 mi
10:00 AM46 °FMostly cloudy.2 mph93%30.07 "Hg2 mi
9:00 AM46 °FFog.1 mph93%30.04 "Hg2 mi
8:00 AM46 °FFog.2 mph93%30.04 "Hg2 mi
7:00 AM48 °FOvercast.No wind87%30.04 "Hg4 mi
6:00 AM46 °FOvercast.5 mph93%30.04 "Hg3 mi
5:00 AM46 °FOvercast.3 mph93%30.04 "Hg4 mi
4:00 AM48 °FOvercast.2 mph87%30.04 "Hg5 mi
3:00 AM48 °FOvercast.3 mph87%30.07 "Hg4 mi
2:00 AM50 °FOvercast.5 mph82%30.07 "Hg4 mi
1:00 AM50 °FOvercast.3 mph82%30.07 "Hg4 mi
12:00 AM52 °FOvercast.2 mph77%30.07 "Hg5 mi
11:00 PM
Fri, Jul 31
50 °FOvercast.3 mph82%30.07 "Hg5 mi
10:00 PM52 °FOvercast.2 mph77%30.09 "Hg5 mi
9:00 PM52 °FOvercast.2 mph82%30.12 "HgN/A
8:00 PM55 °FPassing clouds.3 mph67%30.12 "HgN/A
7:00 PM55 °FOvercast.3 mph72%30.12 "HgN/A
6:00 PM55 °FPartly sunny.5 mph77%30.09 "HgN/A
5:00 PM57 °FPartly sunny.5 mph55%30.09 "HgN/A
Weather by CustomWeather, © 2015

See weather overviewHow to use our weather pages